This is the latest recevied weather packets stored in our database for station/object N4WFF. If no packets are shown the sender has not sent any weather packets the latest 10 day(s).
| Time | Temp. | Humidity | Pressure | Rain* | Wind** | Luminosity | Snow |
|---|---|---|---|---|---|---|---|
| 1777457156 | 18.33° C | 97% | 1016.6 hPa | 0 mm | - | 0 W/m² | - |
| 1777456856 | 18.33° C | 97% | 1016.4 hPa | 0 mm | - | 0 W/m² | - |
| 1777456556 | 18.33° C | 97% | 1016.5 hPa | 0 mm | - | 0 W/m² | - |
| 1777456256 | 18.33° C | 97% | 1016.5 hPa | 0 mm | - | 0 W/m² | - |
| 1777455957 | 18.33° C | 97% | 1016.5 hPa | 0 mm | - | 0 W/m² | - |
| 1777455655 | 18.33° C | 97% | 1016.6 hPa | 0 mm | - | 0 W/m² | - |
| 1777455356 | 18.33° C | 97% | 1016.5 hPa | 0 mm | - | 0 W/m² | - |
| 1777455056 | 18.33° C | 97% | 1016.6 hPa | 0 mm | - | 0 W/m² | - |
| 1777454756 | 18.33° C | 97% | 1016.6 hPa | 0 mm | - | 0 W/m² | - |
| 1777454455 | 18.33° C | 97% | 1016.8 hPa | 0 mm | - | 0 W/m² | - |
| 1777454155 | 18.33° C | 97% | 1017.1 hPa | 0 mm | - | 0 W/m² | - |
| 1777453855 | 18.33° C | 97% | 1017.2 hPa | 0 mm | - | 0 W/m² | - |
| 1777453556 | 18.33° C | 97% | 1017.4 hPa | 0 mm | - | 0 W/m² | - |
| 1777453256 | 18.89° C | 97% | 1017.4 hPa | 0 mm | - | 0 W/m² | - |
| 1777452955 | 18.89° C | 97% | 1017.4 hPa | 0 mm | - | 0 W/m² | - |
| 1777452655 | 18.89° C | 97% | 1017.5 hPa | 0 mm | - | 0 W/m² | - |
| 1777452356 | 18.89° C | 97% | 1017.7 hPa | 0 mm | - | 0 W/m² | - |
| 1777452057 | 18.89° C | 97% | 1018.2 hPa | 0 mm | - | 0 W/m² | - |
| 1777451755 | 18.89° C | 97% | 1018.4 hPa | 0 mm | - | 0 W/m² | - |
| 1777451456 | 18.89° C | 97% | 1018.5 hPa | 0.25 mm | - | 0 W/m² | - |
| 1777451156 | 18.89° C | 97% | 1018.3 hPa | 1.02 mm | - | 0 W/m² | - |
| 1777450855 | 18.89° C | 97% | 1018.5 hPa | 0 mm | - | 0 W/m² | - |
| 1777450555 | 18.89° C | 97% | 1018.2 hPa | 1.52 mm | - | 0 W/m² | - |
| 1777450256 | 18.89° C | 97% | 1018.8 hPa | 4.06 mm | - | 0 W/m² | - |
| 1777449956 | 18.33° C | 97% | 1019.2 hPa | 7.37 mm | - | 0 W/m² | - |
* Rain latest hour (hover to see other rain measurements)
** Current wind speed in m/s (hover to see current wind gust speed)